(178593) = 2000 AX104

Discovered at Socorro on 2000-01-05 by LINEAR.

Orbit

Orbit type: Main Belt

Note: WebGL enabled browser required.

epoch2023-09-13.0
epoch JD2460200.5
perihelion date2020-03-25.49388
perihelion JD2458933.99388
argument of perihelion (°)317.04971
ascending node (°)107.43569
inclination (°)5.46188
eccentricity0.2425073
perihelion distance (AU)1.9353931
Tisserand w.r.t. Jupiter3.4
ΔV w.r.t. Earth (km/sec)8.9
semimajor axis (AU)2.5549991
mean anomaly (°)305.65043
mean daily motion (°/day)0.24133360
aphelion distance (AU)3.175
period (years)4.08
P-vector [x]0.42778967
P-vector [y]0.85295232
P-vector [z]0.29911258
Q-vector [x]-0.89930502
Q-vector [y]0.36839806
Q-vector [z]0.23565515
absolute magnitude16.72
phase slope0.15
uncertainty0
referenceMPEC 2024-B43
observations used547
oppositions14
arc length (days)11675
first opposition used1992
last opposition used2024
residual rms (arc-secs)0.70
perturbers coarse indicatorM-v
perturbers precise indicator003Ek
first observation date used1992-01-31.0
last observation date used2024-01-18.0
computer nameMPCLINUX
JD of orbit computation2456406.169821
perihelion JD uncertainty (days)1.3027E-04
argument of perihelion uncertainty (°)7.0124E-05
ascending node uncertainty (°)6.0904E-05
inclination uncertainty (°)4.6992E-06
eccentricity uncertainty 1.6186E-07
perihelion distance uncertainty (AU)4.3213E-07
Minimum Orbit Intersection Distances (in AU)
for orbit epoch: 2460200.5, reference: E2024-B43
Mercury1.6276
Venus1.21553
Earth0.95209
Mars0.41123
Jupiter2.15723
Saturn6.79164
Uranus15.6438
Neptune27.3806

Observations

556 total observations over interval: 1992 01 31.24442 – 2024 01 18.099440
These data are available for download (format description).

Date (UT) J2000 RA J2000 Dec Magn Location Ref
1992 01 31.24442 08 49 17.87 +21 34 32.5 20.0 V 691 – Steward Observatory, Kitt Peak-Spacewatch MPS 93387
1992 01 31.26992 08 49 16.34 +21 34 42.4   691 – Steward Observatory, Kitt Peak-Spacewatch MPS 93387
1992 01 31.29563 08 49 14.74 +21 34 53.1   691 – Steward Observatory, Kitt Peak-Spacewatch MPS 93387
1999 12 08.38006 06 36 52.03 +19 32 14.4 18.8   704 – Lincoln Laboratory ETS, New Mexico MPS 16761
1999 12 08.39259 06 36 51.44 +19 32 17.6 18.3   704 – Lincoln Laboratory ETS, New Mexico MPS 16761
1999 12 08.40512 06 36 50.72 +19 32 19.9 18.9   704 – Lincoln Laboratory ETS, New Mexico MPS 16761
1999 12 08.41769 06 36 50.20 +19 32 21.8 18.9   704 – Lincoln Laboratory ETS, New Mexico MPS 16761
1999 12 08.43021 06 36 49.60 +19 32 25.7 18.9   704 – Lincoln Laboratory ETS, New Mexico MPS 16761
2000 01 05.21795 06 11 00.00 +21 38 46.5 19.3   704 – Lincoln Laboratory ETS, New Mexico MPS 9338
2000 01 05.22597 06 10 59.46 +21 38 46.8 19.0   704 – Lincoln Laboratory ETS, New Mexico MPS 9338
2000 01 05.23260 06 10 59.12 +21 38 49.9 19.7   704 – Lincoln Laboratory ETS, New Mexico MPS 9338
2000 01 05.24060 06 10 58.62 +21 38 51.3 18.6   704 – Lincoln Laboratory ETS, New Mexico MPS 9338
2000 01 05.24722 06 10 58.22 +21 38 52.9 19.3   704 – Lincoln Laboratory ETS, New Mexico MPS 9338
2000 01 05.25522 06 10 57.81 +21 38 54.9 18.9   704 – Lincoln Laboratory ETS, New Mexico MPS 9338
2000 01 05.26185 06 10 57.43 +21 38 57.1 19.6   704 – Lincoln Laboratory ETS, New Mexico MPS 9338
2000 01 05.26981 06 10 56.96 +21 38 59.5 18.9   704 – Lincoln Laboratory ETS, New Mexico MPS 9338
2000 01 05.27649 06 10 56.50 +21 39 02.0 19.3   704 – Lincoln Laboratory ETS, New Mexico MPS 9338
2000 01 05.28447 06 10 56.13 +21 39 03.9 19.6   704 – Lincoln Laboratory ETS, New Mexico MPS 9338
2000 01 06.28079 06 10 02.60 +21 43 39.9 18.3 V 691 – Steward Observatory, Kitt Peak-Spacewatch MPS 16761
2000 01 06.30370 06 10 01.32 +21 43 46.1 18.0 V 691 – Steward Observatory, Kitt Peak-Spacewatch MPS 16761
2000 01 06.32661 06 10 00.02 +21 43 52.4 18.1 V 691 – Steward Observatory, Kitt Peak-Spacewatch MPS 16761
2000 01 07.22095 06 09 13.36 +21 47 58.4 18.8   704 – Lincoln Laboratory ETS, New Mexico MPS 9338
2000 01 07.23563 06 09 12.53 +21 48 02.2 19.7   704 – Lincoln Laboratory ETS, New Mexico MPS 9338
2000 01 07.25042 06 09 11.72 +21 48 06.3 18.9   704 – Lincoln Laboratory ETS, New Mexico MPS 9338
2000 01 07.26513 06 09 10.87 +21 48 10.4 19.2   704 – Lincoln Laboratory ETS, New Mexico MPS 9338
2000 01 07.27981 06 09 10.08 +21 48 15.1 19.6   704 – Lincoln Laboratory ETS, New Mexico MPS 9338
2000 01 10.22279 06 06 43.41 +22 01 32.8 18.7   704 – Lincoln Laboratory ETS, New Mexico MPS 9338
2000 01 10.23756 06 06 42.66 +22 01 36.5 19.1   704 – Lincoln Laboratory ETS, New Mexico MPS 9338
2000 01 10.25254 06 06 41.92 +22 01 42.0 19.3   704 – Lincoln Laboratory ETS, New Mexico MPS 9338
2000 01 10.26733 06 06 41.18 +22 01 46.0 19.3   704 – Lincoln Laboratory ETS, New Mexico MPS 9338
2000 01 10.28210 06 06 40.42 +22 01 49.1 18.8   704 – Lincoln Laboratory ETS, New Mexico MPS 9338
2003 11 23.41262 05 01 00.42 +15 47 15.1 18.7 V 691 – Steward Observatory, Kitt Peak-Spacewatch MPS 93387
2003 11 23.44121 05 00 58.91 +15 47 17.2 18.8 V 691 – Steward Observatory, Kitt Peak-Spacewatch MPS 93387
2003 11 23.47628 05 00 57.08 +15 47 19.4 19.1 V 691 – Steward Observatory, Kitt Peak-Spacewatch MPS 93387
2003 12 01.27117 04 53 58.56 +15 59 28.2 18.4   704 – Lincoln Laboratory ETS, New Mexico MPS 92623
2003 12 01.28396 04 53 57.80 +15 59 29.8 18.2   704 – Lincoln Laboratory ETS, New Mexico MPS 92623
2003 12 01.29675 04 53 57.03 +15 59 31.6 18.5   704 – Lincoln Laboratory ETS, New Mexico MPS 92623
2003 12 03.25623 04 52 05.20 +16 03 21.7 18.7   704 – Lincoln Laboratory ETS, New Mexico MPS 92623
2003 12 03.26938 04 52 04.44 +16 03 23.3 19.0   704 – Lincoln Laboratory ETS, New Mexico MPS 92623
2003 12 03.28246 04 52 03.65 +16 03 25.4 18.9   704 – Lincoln Laboratory ETS, New Mexico MPS 92623
2003 12 03.29548 04 52 02.85 +16 03 26.6 19.2   704 – Lincoln Laboratory ETS, New Mexico MPS 92623
2003 12 03.30844 04 52 02.09 +16 03 28.4 18.9   704 – Lincoln Laboratory ETS, New Mexico MPS 92623
2003 12 04.26618 04 51 07.07 +16 05 27.6 18.6   704 – Lincoln Laboratory ETS, New Mexico MPS 93387
2003 12 04.27839 04 51 06.33 +16 05 29.5 19.0   704 – Lincoln Laboratory ETS, New Mexico MPS 93387
2003 12 04.29063 04 51 05.59 +16 05 30.6 18.4   704 – Lincoln Laboratory ETS, New Mexico MPS 93387
2003 12 04.30277 04 51 04.92 +16 05 33.5 19.6   704 – Lincoln Laboratory ETS, New Mexico MPS 93387
2003 12 04.31494 04 51 04.12 +16 05 35.0 18.9   704 – Lincoln Laboratory ETS, New Mexico MPS 93387
2003 12 14.41697 04 41 31.94 +16 31 17.9 18.5   644 – Palomar Mountain/NEAT MPS 93610
2003 12 14.44076 04 41 30.60 +16 31 22.1 18.7   644 – Palomar Mountain/NEAT MPS 93610
2003 12 14.47176 04 41 28.91 +16 31 27.3 18.9   644 – Palomar Mountain/NEAT MPS 93610
2003 12 16.26645 04 39 54.51 +16 36 56.0 18.8 V 691 – Steward Observatory, Kitt Peak-Spacewatch MPS 93610
2003 12 16.29413 04 39 52.97 +16 37 01.1 18.8 V 691 – Steward Observatory, Kitt Peak-Spacewatch MPS 93610
2003 12 16.32157 04 39 51.46 +16 37 06.2 18.9 V 691 – Steward Observatory, Kitt Peak-Spacewatch MPS 93610
2003 12 28.16441 04 31 17.65 +17 19 35.3 19.0 V 691 – Steward Observatory, Kitt Peak-Spacewatch MPS 95678
2003 12 28.19116 04 31 16.69 +17 19 42.0 19.1 V 691 – Steward Observatory, Kitt Peak-Spacewatch MPS 95678
2003 12 28.21949 04 31 15.67 +17 19 48.8 19.2 V 691 – Steward Observatory, Kitt Peak-Spacewatch MPS 95678
2004 01 24.15484 04 29 36.69 +19 29 40.7 19.4   704 – Lincoln Laboratory ETS, New Mexico MPS 97613
2004 01 24.16736 04 29 37.01 +19 29 44.6 19.7   704 – Lincoln Laboratory ETS, New Mexico MPS 97613
2004 01 24.17986 04 29 37.33 +19 29 49.4 20.0   704 – Lincoln Laboratory ETS, New Mexico MPS 97613
2004 01 24.19236 04 29 37.65 +19 29 53.3 19.9   704 – Lincoln Laboratory ETS, New Mexico MPS 97613
2007 09 22.35269 03 37 03.51 +10 41 56.7 19.7   704 – Lincoln Laboratory ETS, New Mexico MPS 217713
2007 09 22.36490 03 37 03.86 +10 41 55.8 20.5   704 – Lincoln Laboratory ETS, New Mexico MPS 217713
2007 09 22.37711 03 37 04.20 +10 41 55.6 20.6   704 – Lincoln Laboratory ETS, New Mexico MPS 217713
2007 09 22.38944 03 37 04.58 +10 41 55.5 20.5   704 – Lincoln Laboratory ETS, New Mexico MPS 217713
2007 09 22.40165 03 37 05.01 +10 41 54.5 20.0   704 – Lincoln Laboratory ETS, New Mexico MPS 217713
2007 10 19.31174 03 39 34.22 +09 48 36.5 18.6   704 – Lincoln Laboratory ETS, New Mexico MPS 222364
2007 10 19.33464 03 39 33.60 +09 48 33.3 18.7   704 – Lincoln Laboratory ETS, New Mexico MPS 222364
2007 10 19.34595 03 39 33.32 +09 48 31.6 19.3   704 – Lincoln Laboratory ETS, New Mexico MPS 222364
2007 10 19.35722 03 39 33.06 +09 48 29.3 19.4   704 – Lincoln Laboratory ETS, New Mexico MPS 222364
2007 10 20.31580 03 39 10.50 +09 45 58.9 18.8   704 – Lincoln Laboratory ETS, New Mexico MPS 222364
2007 10 20.32718 03 39 10.26 +09 45 57.3 19.8   704 – Lincoln Laboratory ETS, New Mexico MPS 222364
2007 10 20.33856 03 39 09.96 +09 45 55.1 20.0   704 – Lincoln Laboratory ETS, New Mexico MPS 222364
2007 10 20.34995 03 39 09.64 +09 45 53.9 20.0   704 – Lincoln Laboratory ETS, New Mexico MPS 222364
2007 10 20.36141 03 39 09.30 +09 45 52.7 19.5   704 – Lincoln Laboratory ETS, New Mexico MPS 222365
2007 10 30.38890 03 33 31.50 +09 20 23.8 18.2 V 703 – Catalina Sky Survey MPS 223305
2007 10 30.39785 03 33 31.10 +09 20 22.3 17.9 V 703 – Catalina Sky Survey MPS 223305
2007 10 30.40684 03 33 30.67 +09 20 21.3 18.0 V 703 – Catalina Sky Survey MPS 223305
2007 10 30.41582 03 33 30.24 +09 20 20.0 18.6 V 703 – Catalina Sky Survey MPS 223305
2007 11 03.66900 03 30 19.28 +09 10 45.8 17.7 R D29 – Purple Mountain Observatory, XuYi Station MPS 224574
2007 11 03.68357 03 30 18.48 +09 10 43.8 19.0 R D29 – Purple Mountain Observatory, XuYi Station MPS 224574
2007 11 03.70837 03 30 17.25 +09 10 40.9 18.9 R D29 – Purple Mountain Observatory, XuYi Station MPS 224574
2007 11 03.72375 03 30 16.46 +09 10 38.2 18.5 R D29 – Purple Mountain Observatory, XuYi Station MPS 224574
